This is the latest recevied weather packets stored in our database for station/object KO4LCK. If no packets are shown the sender has not sent any weather packets the latest 10 day(s).
| Time | Temp. | Humidity | Pressure | Rain* | Wind** | Luminosity | Snow |
|---|---|---|---|---|---|---|---|
| 1777906625 | 20.56° C | 53% | 1018.7 hPa | 0 mm | - | 600 W/m² | - |
| 1777906320 | 19.44° C | 52% | 1018.9 hPa | 0 mm | - | 580 W/m² | - |
| 1777906017 | 19.44° C | 51% | 1018.8 hPa | 0 mm | - | 559 W/m² | - |
| 1777905713 | 20° C | 51% | 1018.8 hPa | 0 mm | - | 560 W/m² | - |
| 1777905410 | 19.44° C | 53% | 1019 hPa | 0 mm | - | 544 W/m² | - |
| 1777905108 | 18.89° C | 55% | 1019.1 hPa | 0 mm | - | 514 W/m² | - |
| 1777904805 | 18.33° C | 52% | 1019 hPa | 0 mm | - | 513 W/m² | - |
| 1777904502 | 18.33° C | 54% | 1019.1 hPa | 0 mm | - | 498 W/m² | - |
| 1777904198 | 17.78° C | 57% | 1019 hPa | 0 mm | - | 483 W/m² | - |
| 1777903896 | 17.78° C | 60% | 1019.1 hPa | 0 mm | - | 456 W/m² | - |
| 1777903593 | 17.22° C | 57% | 1019.1 hPa | 0 mm | - | 458 W/m² | - |
| 1777903288 | 16.67° C | 58% | 1019 hPa | 0 mm | - | 439 W/m² | - |
| 1777902985 | 16.67° C | 59% | 1019.3 hPa | 0 mm | - | 436 W/m² | - |
| 1777902682 | 16.67° C | 59% | 1019.3 hPa | 0 mm | - | 401 W/m² | - |
| 1777902379 | 15.56° C | 64% | 1019.1 hPa | 0 mm | - | 318 W/m² | - |
| 1777902076 | 14.44° C | 63% | 1019.2 hPa | 0 mm | - | 381 W/m² | - |
| 1777901775 | 14.44° C | 64% | 1019.2 hPa | 0 mm | - | 327 W/m² | - |
| 1777901471 | 14.44° C | 64% | 1019.3 hPa | 0 mm | - | 356 W/m² | - |
| 1777901169 | 13.89° C | 67% | 1019.2 hPa | 0 mm | - | 329 W/m² | - |
| 1777900866 | 13.33° C | 68% | 1019.2 hPa | 0 mm | - | 296 W/m² | - |
| 1777900563 | 13.33° C | 68% | 1019.2 hPa | 0 mm | - | 278 W/m² | - |
| 1777900260 | 13.33° C | 69% | 1019.2 hPa | 0 mm | - | 216 W/m² | - |
| 1777899956 | 12.78° C | 73% | 1019.1 hPa | 0 mm | - | 203 W/m² | - |
| 1777899654 | 12.22° C | 76% | 1019.1 hPa | 0 mm | - | 191 W/m² | - |
| 1777899351 | 11.67° C | 83% | 1019.1 hPa | 0 mm | - | 171 W/m² | - |
* Rain latest hour (hover to see other rain measurements)
** Current wind speed in m/s (hover to see current wind gust speed)